Temp
7 7 7 7 7 7 7 7 6 6 7 7 7 7 7 7 7 8 8 8 8 8 8 8 8 8 8 9 9 9 9 9 9 10 10 10 11 11 12 12 13 13 12 12 12 13 14 15 15 16 17 17 18 19 20 20 19 19 20 20 20 21 22 23 23 23 23 24 23 22 22 23 24 23 23 22 23 25 25 24 23 22 22 22 20 18 18 18
6 7 7 7 7 7 7 7 6 6 6 7 7 7 7 7 7 7 8 8 8 8 8 8 8 8 8 8 9 9 9 9 9 10 10 11 11 12 12 12 13 13 12 12 13 13 13 14 15 15 16 18 18 19 20 20 20 20 20 20 21 22 23 23 23 23 23 24 23 22 22 23 23 22 23 24 24 25 25 25 24 24 24 23 20 18 18 18
6 6 6 6 6 7 7 7 7 6 6 6 7 7 7 7 7 7 7 8 8 8 8 8 8 8 8 8 8 8 9 9 9 10 11 11 11 12 12 12 12 13 12 12 13 13 13 14 14 14 15 17 18 19 19 19 19 21 21 20 21 23 23 23 23 23 23 24 24 23 22 22 22 22 23 23 24 25 25 24 24 25 25 24 23 19 17 18
6 6 6 6 6 6 6 7 7 6 6 6 6 6 6 7 7 7 7 7 8 8 8 8 8 8 8 8 8 8 9 9 10 11 11 10 11 11 12 12 13 12 12 12 12 13 13 13 13 14 15 16 18 19 19 19 20 21 21 21 22 23 22 22 23 23 23 23 24 23 22 22 22 21 22 23 24 25 25 24 23 23 24 24 23 20 18 18
6 6 6 6 6 6 6 7 7 7 7 6 6 6 6 6 6 7 7 7 7 7 8 8 8 8 8 8 8 8 9 10 11 11 10 10 10 11 11 12 12 12 12 12 12 12 12 13 13 13 14 16 17 18 19 20 20 20 21 22 23 22 21 21 21 22 22 23 23 23 23 23 22 22 22 22 24 25 25 23 23 23 23 23 23 21 19 18
6 6 6 6 6 6 6 6 6 6 7 6 6 6 6 6 6 6 6 7 7 7 8 8 8 7 7 8 8 8 8 10 11 10 10 10 10 11 11 11 12 12 12 12 12 12 12 13 13 13 14 16 17 17 19 20 20 20 21 22 22 21 21 21 20 20 21 22 23 23 23 23 22 23 22 21 23 25 24 23 22 22 23 22 22 21 20 19
5 6 6 6 5 6 6 6 6 6 6 6 6 6 6 6 6 6 6 7 7 7 7 7 7 7 7 7 8 8 8 10 11 10 10 10 10 11 11 12 12 12 12 13 13 13 12 13 13 13 14 16 17 18 19 20 19 20 21 21 22 22 21 21 20 19 20 21 22 22 22 22 23 23 21 21 23 24 24 23 22 22 22 21 21 21 21 21
5 5 5 5 5 5 5 6 6 6 6 6 6 6 6 6 6 6 6 6 7 7 7 7 7 7 7 7 8 8 8 10 11 10 10 10 11 11 11 12 12 12 12 13 13 13 13 13 13 14 14 16 17 18 19 19 19 19 20 21 21 21 21 20 19 19 19 21 21 21 21 22 22 22 21 22 24 24 23 23 22 22 22 21 22 21 21 21
6 5 5 5 5 5 5 5 5 6 6 6 6 6 6 6 6 6 6 6 6 7 7 7 7 7 7 8 8 8 9 10 10 10 10 11 10 11 11 12 12 12 12 13 14 14 13 13 14 14 14 15 16 17 18 18 18 19 20 20 20 20 21 20 19 19 19 20 20 20 21 21 21 21 21 23 24 23 22 22 22 22 22 22 22 21 21 21
5 6 5 5 5 5 5 5 5 5 6 6 6 6 6 6 6 6 6 6 6 6 7 7 7 7 7 8 8 8 9 10 10 10 10 10 10 10 11 11 11 11 12 13 14 14 14 14 15 15 14 14 15 16 17 17 18 19 19 20 20 20 20 20 19 19 19 20 20 20 21 21 20 20 21 23 23 22 22 23 22 22 23 22 22 21 21 21
5 6 5 5 5 5 5 5 5 5 5 6 6 6 6 6 6 6 6 6 6 6 6 7 7 7 7 7 7 8 10 10 10 10 10 10 10 10 11 11 11 11 11 12 13 14 14 15 15 15 14 14 15 16 16 17 17 18 19 19 19 20 19 19 20 19 19 20 20 20 21 21 19 19 21 23 22 21 22 23 22 23 23 22 22 22 22 22
6 6 5 5 5 5 5 5 5 5 5 5 6 6 6 6 6 6 6 6 6 6 6 7 7 6 6 7 7 9 10 10 10 10 9 10 10 10 11 11 10 10 11 12 13 14 14 15 15 14 14 14 15 15 16 16 17 17 18 18 18 19 19 19 20 19 20 20 20 20 20 20 20 19 21 22 22 22 22 22 22 23 22 22 22 22 23 23
6 5 5 5 5 5 5 5 5 5 5 5 5 5 6 6 6 5 6 6 6 6 6 6 6 6 6 7 8 9 10 10 10 9 9 9 9 10 11 11 11 10 11 11 12 13 13 14 14 14 14 14 14 14 15 15 16 16 17 17 17 17 18 19 20 19 20 20 20 20 20 21 22 21 21 20 21 21 21 23 23 22 22 22 22 23 23 23
5 5 5 5 5 5 5 5 5 5 5 5 5 5 5 6 6 6 6 6 6 6 6 6 6 6 6 7 9 9 9 9 8 9 9 9 10 10 11 11 10 10 11 11 11 12 13 14 14 14 14 14 15 14 14 15 16 16 16 16 17 17 17 19 20 19 19 19 19 20 19 21 23 22 21 20 20 20 21 23 23 23 23 22 22 22 23 23
5 5 5 5 5 5 5 5 5 5 5 5 5 5 5 6 6 6 6 6 6 6 6 6 6 6 6 8 9 9 9 9 9 9 9 9 9 10 11 11 10 11 11 10 11 11 13 13 13 13 13 14 15 14 14 15 15 16 16 16 16 17 18 19 19 19 19 18 19 20 19 21 22 22 20 18 18 19 21 22 23 23 23 22 22 22 23 23
5 5 5 5 5 5 5 5 5 5 5 5 5 5 6 6 5 5 6 6 6 6 6 6 6 6 7 8 9 9 9 9 9 10 9 9 9 9 10 10 10 11 11 10 11 11 12 13 13 13 14 13 14 14 14 14 15 15 16 16 16 17 18 18 18 19 20 19 18 20 20 20 21 20 19 18 18 19 20 22 22 23 23 22 22 22 22 23
5 5 5 5 5 5 5 5 5 5 5 5 5 6 6 5 5 6 6 6 6 6 6 6 6 6 7 9 9 9 9 9 9 9 9 10 9 9 10 10 11 11 11 10 10 11 12 13 13 13 13 13 14 15 14 14 15 15 16 17 17 18 18 18 18 18 20 19 18 19 20 21 21 20 19 19 19 19 19 21 22 22 22 22 22 22 22 22
5 5 5 5 5 5 5 5 5 5 5 5 5 6 5 5 6 6 6 6 6 6 6 6 6 6 8 8 9 9 8 8 9 9 9 10 10 9 9 10 11 11 11 11 10 11 12 13 13 13 13 13 14 14 15 15 15 16 16 17 17 18 18 19 18 18 18 19 19 19 19 20 21 21 20 19 19 19 19 21 21 22 22 22 22 21 22 21
5 5 5 5 5 5 5 5 5 5 5 5 6 6 6 6 6 6 6 6 6 7 7 6 7 7 8 8 8 8 8 8 8 9 9 9 9 9 9 10 10 10 10 11 11 12 12 13 13 13 13 13 14 15 16 16 16 17 17 18 18 17 18 19 19 18 18 19 19 19 19 20 20 21 21 20 19 19 20 20 21 21 22 22 22 22 21 20
5 5 5 5 5 5 5 5 5 5 5 6 6 6 6 6 7 7 7 6 7 7 7 7 7 8 8 8 8 8 8 9 9 9 9 8 8 9 9 10 10 10 10 11 12 12 13 12 12 13 14 15 15 15 16 16 16 17 17 18 18 18 18 19 18 17 18 18 18 20 20 20 20 20 21 21 20 20 20 20 20 21 21 21 21 21 21 20
5 5 5 5 5 5 5 5 5 5 6 5 5 6 6 6 6 6 6 7 7 6 6 6 6 6 7 7 7 7 8 8 9 9 9 8 8 8 9 10 9 10 11 12 12 12 13 13 13 14 15 16 16 15 16 16 16 15 15 16 18 18 18 18 17 17 18 18 18 19 19 20 20 20 20 20 20 20 20 20 21 21 21 20 20 20 20 20
5 5 4 5 5 5 5 5 5 5 6 5 5 6 6 4 4 5 5 6 7 6 5 5 4 5 6 7 7 7 7 8 9 9 8 8 9 8 9 10 9 10 11 11 12 12 12 13 14 15 16 16 16 15 15 16 16 14 14 14 16 17 16 16 16 16 17 17 18 18 18 19 20 19 20 20 20 20 20 20 20 20 20 20 20 19 19 18
5 4 4 5 5 5 5 5 5 5 5 5 5 5 5 4 4 4 4 5 6 6 5 5 5 6 7 7 7 7 7 7 8 9 8 9 9 9 9 9 9 9 10 11 11 12 12 13 15 15 16 16 15 15 15 15 16 15 14 14 14 15 15 15 15 15 15 16 16 17 17 19 19 19 19 19 19 19 19 18 18 19 19 19 18 17 17 16
5 4 4 5 5 5 5 5 5 6 6 5 5 5 4 4 4 4 5 5 6 6 6 5 6 6 7 7 6 7 8 8 8 9 8 8 9 9 9 10 9 9 10 11 12 12 12 14 15 15 15 15 15 15 15 15 16 15 15 14 14 14 14 15 14 14 15 15 15 17 17 18 19 19 19 19 19 19 19 18 18 18 18 17 16 16 15 15
5 5 4 4 5 5 5 5 5 5 5 5 5 5 5 5 5 4 5 6 6 7 6 6 6 6 6 7 7 7 8 8 8 8 8 8 9 9 9 10 10 9 9 10 12 12 12 12 14 15 15 15 15 15 15 15 15 15 15 15 15 15 14 14 14 14 15 15 15 15 17 17 18 18 18 18 18 19 19 18 18 17 16 16 15 15 15 15
5 5 5 5 5 6 6 6 6 5 5 5 5 5 5 5 5 5 5 6 6 7 6 6 6 7 7 7 7 7 8 8 7 7 7 8 8 8 9 9 9 9 9 10 11 11 11 11 13 15 15 15 15 15 15 16 15 15 15 16 16 15 15 15 14 14 14 14 14 14 16 17 17 18 18 18 18 19 19 17 16 15 15 15 15 15 15 15
5 5 5 6 6 6 6 6 6 6 6 6 5 5 5 5 5 5 5 6 6 5 6 7 7 6 7 7 7 8 8 7 7 8 8 8 8 8 10 10 9 9 8 9 11 10 10 11 12 14 15 14 15 15 14 15 16 15 15 16 16 16 15 15 14 13 12 13 13 13 15 16 16 18 18 17 18 18 16 14 14 14 14 14 15 15 15 14
5 5 5 6 6 6 6 6 6 6 6 6 5 5 5 5 5 5 6 7 6 5 5 6 7 6 7 7 7 7 6 5 7 8 7 7 8 9 11 10 9 9 7 9 11 10 9 11 12 14 15 14 15 14 14 16 16 14 13 15 16 16 16 15 14 13 12 13 13 13 14 15 16 18 17 17 18 16 13 12 13 14 14 14 14 14 14 14
6 5 5 6 6 6 6 5 6 6 5 5 5 5 5 5 5 6 7 7 6 5 5 6 7 7 7 8 8 7 6 5 7 7 7 8 8 8 10 10 9 9 8 10 11 9 8 9 10 12 14 13 13 12 13 15 15 13 13 15 15 15 16 15 15 14 12 14 14 13 14 16 17 18 18 17 17 14 12 13 13 14 14 14 14 13 13 13
6 6 6 6 6 5 5 6 6 5 5 5 5 5 5 5 6 7 7 6 6 6 5 6 7 7 7 8 8 7 6 6 6 6 7 8 8 8 9 9 9 10 10 11 10 9 9 9 9 10 11 11 11 11 12 13 14 14 14 15 15 14 15 14 15 15 14 15 15 14 15 16 17 18 17 16 15 14 13 13 13 13 13 13 13 13 12 12
7 7 6 6 6 5 5 6 6 5 5 5 5 5 5 6 7 7 7 6 6 6 6 6 6 7 7 7 7 7 6 6 6 7 8 9 9 9 10 10 10 11 11 11 11 10 10 10 10 10 10 11 12 12 12 12 13 13 15 15 14 14 14 14 14 14 15 16 15 14 15 16 17 16 15 13 13 14 14 13 13 13 12 12 12 12 11 11
7 7 7 6 6 6 6 6 6 5 4 4 4 5 6 8 7 6 6 6 6 6 6 6 6 6 7 7 7 6 6 6 7 8 8 9 9 9 10 10 9 11 12 10 11 11 11 10 10 10 10 12 13 13 12 13 13 13 15 15 15 14 14 14 14 14 16 15 14 14 15 16 15 14 12 12 13 13 13 12 12 12 12 11 11 10 10 9
7 7 7 7 7 6 6 6 5 5 4 4 4 6 8 8 6 5 6 6 6 6 6 6 6 6 7 7 7 6 6 7 7 8 8 9 9 9 9 9 8 11 12 10 11 12 12 12 11 11 11 11 13 14 13 13 13 13 14 16 15 14 13 13 13 14 15 14 13 14 15 16 14 12 11 12 12 12 12 12 12 11 11 10 10 9 8 8
8 8 8 7 7 7 6 5 6 6 4 4 6 8 7 6 6 5 6 5 5 6 6 5 5 6 7 7 6 5 7 7 8 8 8 9 9 8 9 9 8 10 11 11 11 11 12 12 11 11 11 11 12 12 12 13 14 12 13 15 15 15 14 14 14 14 14 14 14 13 14 15 13 11 11 12 11 12 11 11 11 10 10 9 8 8 7 7
8 8 8 8 7 6 6 7 7 6 5 6 8 8 6 5 5 5 5 5 5 5 5 5 6 7 7 7 6 6 7 8 8 9 8 8 8 7 7 8 8 8 11 12 11 10 11 11 10 10 9 10 11 11 11 13 13 12 11 14 15 15 15 14 13 13 14 14 14 14 13 13 12 11 11 12 11 11 11 10 10 9 8 8 7 7 6 6
8 8 8 8 7 7 7 8 8 7 6 8 8 6 5 5 5 5 5 5 5 4 4 6 6 7 7 7 7 7 7 8 8 9 8 7 7 7 7 8 8 8 9 11 10 10 11 11 10 10 10 10 10 10 11 11 13 13 13 14 14 13 14 14 12 12 13 14 14 14 13 11 11 12 11 12 11 10 10 9 9 8 7 7 6 6 5 5
8 8 8 8 7 7 8 8 8 8 8 8 8 5 3 5 5 4 5 5 4 4 5 7 7 6 7 7 6 6 7 8 8 8 8 8 7 6 6 7 8 8 7 8 10 10 11 11 10 10 11 10 9 10 11 10 12 14 14 13 13 12 13 15 14 12 13 14 15 14 13 11 12 12 11 11 10 9 9 8 8 7 7 6 5 5 5 5
8 8 8 7 7 7 8 8 8 8 8 7 6 4 3 4 4 4 4 4 4 5 6 7 7 6 7 7 6 6 7 8 7 7 8 7 7 6 6 6 8 8 6 7 10 9 10 11 10 9 10 10 10 11 12 11 11 12 13 13 13 13 14 14 14 13 13 13 13 14 13 13 13 12 11 10 9 9 8 7 7 6 6 5 5 5 4 4
8 8 8 7 7 8 8 8 8 8 8 6 5 5 3 3 4 4 4 4 4 5 7 7 7 7 7 6 6 6 6 6 7 7 7 7 7 6 5 5 7 8 7 8 9 8 9 11 11 10 10 10 11 12 13 12 12 12 12 12 12 13 14 14 14 13 14 13 12 13 14 12 11 10 9 8 8 8 8 7 6 5 5 5 4 4 4 4
6 8 9 8 8 8 8 9 7 7 6 4 4 4 2 3 4 5 5 4 5 6 6 6 7 7 6 6 7 6 6 5 6 6 6 6 6 6 5 4 5 6 7 9 8 8 10 11 10 10 10 10 11 11 10 11 12 12 13 12 12 12 13 13 13 12 13 13 12 12 13 10 8 8 8 7 7 7 7 6 5 5 5 4 4 4 4 3
6 8 8 8 8 8 9 8 4 3 3 3 3 2 2 4 5 5 5 5 5 6 6 6 6 5 6 7 7 6 6 5 5 6 5 5 6 6 5 4 3 4 7 9 9 7 10 11 11 10 10 10 10 8 7 8 9 11 12 12 12 13 13 13 12 11 11 12 12 13 12 9 7 7 6 6 6 5 6 5 5 4 4 4 4 4 3 3
7 8 8 7 8 9 9 6 2 1 3 3 2 1 3 4 4 4 5 5 5 6 6 5 5 5 5 6 6 6 6 6 6 6 5 5 5 5 5 4 3 3 6 9 8 6 8 10 10 9 8 9 8 6 5 5 7 10 11 11 11 12 13 13 13 11 11 11 11 13 12 8 6 6 5 5 5 4 5 5 5 4 4 4 4 3 3 3
7 7 7 7 8 9 8 6 3 2 2 2 1 1 2 3 4 4 5 4 4 5 6 5 4 5 4 4 5 5 5 5 5 6 6 5 5 5 4 4 4 4 6 8 8 7 7 9 9 8 8 9 8 7 6 6 7 9 10 9 9 11 11 12 12 12 12 12 11 12 11 7 5 5 5 4 4 4 4 4 4 4 4 4 3 3 3 3
4 5 6 7 8 10 8 6 5 3 2 1 2 2 2 3 3 3 4 4 4 4 5 5 4 5 4 3 3 4 4 5 5 5 6 6 5 5 4 4 5 6 7 7 7 8 8 8 9 9 9 8 9 9 9 9 9 9 8 8 9 9 10 10 11 11 12 12 12 12 12 8 5 4 4 4 4 4 4 4 4 4 3 3 3 3 3 3
4 5 6 6 6 7 5 3 4 3 2 2 2 1 2 3 3 3 3 3 3 3 4 4 4 4 4 3 3 3 4 5 5 4 5 5 5 5 4 3 4 5 6 6 5 6 7 6 7 10 10 9 9 9 9 9 8 8 8 8 8 8 9 10 11 11 11 11 11 12 11 6 3 4 4 3 4 3 4 4 4 4 3 3 3 2 2 2
6 7 6 6 5 4 3 2 2 2 2 2 2 1 1 3 3 3 3 3 3 3 3 3 3 3 4 3 3 3 3 4 4 3 3 4 4 4 3 3 4 5 5 5 4 5 6 4 4 7 9 9 8 7 6 7 8 8 7 8 8 8 9 10 11 11 11 10 10 11 9 5 3 4 3 3 3 3 3 4 4 3 3 3 2 2 2 2
6 5 3 5 5 4 3 2 2 2 3 3 3 2 1 2 3 4 4 3 3 3 2 2 2 2 3 3 3 3 2 2 3 2 2 3 3 3 3 3 4 4 5 5 5 6 7 5 3 4 5 5 5 5 5 6 8 8 8 8 8 8 8 9 10 10 10 10 10 9 8 6 4 3 2 3 2 2 3 3 3 3 3 2 2 2 2 2
4 3 1 3 4 3 3 3 2 2 3 3 1 1 2 2 2 2 3 3 3 3 3 3 2 1 1 2 3 3 2 3 3 2 2 2 2 3 4 4 3 4 5 5 5 6 6 5 2 3 4 4 4 5 6 6 6 6 7 7 7 7 8 8 9 9 9 10 10 8 7 7 4 2 2 2 2 2 2 3 3 3 2 2 2 2 1 1
3 3 1 1 2 1 0 1 2 2 2 2 1 1 1 2 2 1 1 2 3 3 3 3 1 0 0 2 3 3 2 4 4 2 2 2 2 3 4 4 4 4 4 5 4 4 5 4 3 3 4 4 4 4 5 5 5 5 6 7 7 7 7 7 8 7 7 8 8 7 6 4 2 2 2 2 2 2 2 3 3 3 2 2 1 1 1 1
3 3 2 2 1 0 -1 -1 1 3 3 2 2 1 0 1 2 1 1 2 3 3 3 3 1 -0 0 2 3 2 2 3 3 2 1 2 3 3 2 2 3 3 4 4 4 4 5 4 2 3 5 4 4 4 5 5 5 5 6 6 6 6 6 6 6 6 6 7 6 6 6 4 1 1 2 2 2 2 2 2 3 2 2 1 1 1 1 0
0 -0 2 4 2 1 0 -1 -0 2 3 2 2 2 1 1 1 1 1 1 2 2 2 2 1 -0 -0 1 2 2 1 2 2 1 1 2 2 2 2 1 1 2 3 3 3 4 4 4 2 4 6 5 3 4 4 4 5 5 5 5 5 5 5 5 5 5 5 6 5 5 6 4 1 1 1 1 1 1 1 2 2 1 1 1 0 0 0 0
-0 -1 1 3 3 1 0 0 1 2 3 1 0 0 0 1 -0 -0 1 2 1 1 1 0 -0 0 1 2 1 1 1 1 1 0 0 0 0 1 1 1 1 2 2 3 3 1 1 3 4 5 7 5 3 3 3 4 6 7 6 5 5 5 5 5 4 3 3 4 5 5 5 3 1 1 1 1 1 1 1 1 1 1 1 0 0 -0 -0 -0
Height
855 853 853 851 850 849 847 846 844 843 842 841 840 839 838 837 835 834 832 831 830 829 828 827 826 826 825 824 823 822 821 820 819 818 814 810 811 812 812 813 814 814 816 816 816 815 813 812 812 811 811 810 810 809 808 809 810 813 820 825 823 816 811 808 809 810 808 807 809 810 809 809 810 808 805 805 805 803 802 802 802 801 801 802 803 804 804 805
854 853 851 850 849 848 846 845 843 842 841 840 839 838 837 836 834 833 831 830 829 828 827 826 825 824 824 824 822 821 820 819 817 813 809 808 809 808 810 811 812 813 815 815 815 815 814 812 811 811 811 810 808 808 808 808 809 810 817 822 817 809 803 801 804 806 805 806 807 809 810 809 810 809 806 806 807 803 804 804 802 802 801 801 802 804 804 805
853 852 850 849 848 846 845 844 843 841 840 839 838 837 836 834 833 832 830 829 828 827 826 825 824 823 823 822 821 821 819 818 814 808 805 807 805 804 807 808 809 811 813 814 814 814 814 812 812 812 812 810 806 806 807 807 807 805 810 818 811 801 801 801 802 804 803 804 805 808 809 809 809 809 807 808 808 805 806 806 805 805 803 800 801 803 805 806
851 850 849 847 846 845 844 843 842 840 839 838 836 836 834 833 832 831 829 828 827 826 825 824 823 823 822 821 821 820 819 817 808 802 804 804 802 801 803 805 806 809 811 812 813 813 813 813 813 812 811 811 806 805 806 804 804 802 803 807 802 799 803 802 801 802 801 802 803 806 808 809 808 808 809 809 809 807 806 806 806 806 804 801 800 802 805 806
850 849 847 846 845 843 842 841 840 839 838 837 835 834 833 832 831 829 829 827 826 825 823 823 822 822 821 820 820 819 820 815 801 798 802 802 801 801 801 803 805 807 809 811 811 812 813 812 812 812 810 808 807 806 803 798 799 802 799 796 796 799 803 802 802 803 802 803 803 805 808 807 807 808 808 809 810 806 803 804 805 804 803 801 800 801 804 805
849 847 846 844 843 842 840 839 838 838 837 835 834 833 832 831 829 828 827 826 825 824 823 822 821 821 819 820 819 819 821 811 797 799 800 799 801 801 802 803 803 805 807 808 809 810 811 811 812 813 808 803 805 804 799 795 797 802 798 794 795 797 801 802 803 805 805 805 805 806 805 805 807 808 808 809 808 802 800 802 803 803 802 801 800 801 802 804
847 846 845 843 842 840 839 838 837 836 835 834 833 831 830 829 828 827 826 825 824 823 822 820 820 819 818 819 818 818 818 806 798 801 800 799 801 801 803 803 802 803 804 805 806 807 809 810 810 809 807 802 800 799 796 795 798 801 799 796 795 796 799 801 803 806 807 806 805 805 806 807 808 807 808 808 804 801 800 801 802 802 802 801 800 800 801 802
846 845 843 842 840 839 838 837 836 834 833 832 831 830 828 827 826 825 824 823 822 822 821 820 819 818 817 818 817 817 813 803 800 802 801 801 802 802 803 802 802 801 801 802 802 804 806 808 807 806 808 802 796 795 794 797 800 800 798 795 796 797 798 801 803 806 807 806 805 806 808 808 807 807 808 804 800 800 800 800 802 802 801 801 800 800 800 801
845 844 842 840 839 837 836 835 834 832 831 830 829 828 827 825 824 823 822 821 821 820 819 819 818 817 817 816 817 815 806 800 801 801 801 801 802 803 803 802 801 800 799 800 800 802 803 805 804 803 806 802 796 795 794 799 801 797 796 796 798 799 799 801 804 806 806 806 807 808 810 808 806 808 808 801 798 800 800 801 801 801 801 801 800 800 800 800
844 842 840 838 837 835 834 833 831 830 829 828 827 826 824 823 823 821 821 820 819 819 818 817 816 816 816 814 815 812 801 800 802 800 800 800 801 801 802 801 801 800 799 798 798 799 799 800 801 801 804 803 800 797 795 798 798 793 796 797 798 800 800 801 803 805 805 806 807 808 809 807 808 811 809 800 797 799 800 800 800 800 801 800 800 799 800 800
843 840 839 837 835 833 832 830 829 828 827 826 825 824 822 821 820 819 819 818 817 817 816 815 815 815 814 813 812 806 799 800 801 800 801 800 800 800 800 800 800 800 799 797 797 796 797 798 799 801 804 803 800 799 796 795 795 794 796 800 802 801 803 803 803 805 806 806 806 806 807 807 810 813 807 800 798 799 800 801 800 800 800 800 800 799 799 799
841 839 836 834 833 832 830 828 827 826 824 824 823 821 821 819 818 818 817 816 815 815 815 814 814 813 813 812 807 802 799 800 799 799 799 799 800 799 799 799 799 799 798 797 796 795 797 798 799 802 802 800 800 800 797 793 795 797 798 805 807 804 806 805 802 804 805 806 804 806 812 810 808 808 802 800 799 799 800 801 800 800 800 800 799 799 799 799
839 837 835 833 831 830 828 826 825 823 823 822 821 819 818 817 816 816 815 815 814 813 813 812 811 811 812 809 802 800 800 798 797 797 797 797 798 797 797 797 797 798 798 796 795 795 797 798 799 800 799 800 801 802 798 793 795 799 803 807 810 814 812 802 801 804 804 806 802 807 817 808 799 798 798 799 799 800 801 800 799 799 799 800 799 799 798 798
837 835 833 831 829 828 826 824 823 822 821 820 819 817 816 815 814 814 813 813 812 812 811 810 810 810 810 805 799 798 798 796 796 795 795 796 795 795 795 795 796 796 796 795 795 795 796 798 800 800 800 801 800 801 800 797 797 802 809 810 811 817 812 799 799 804 805 807 801 807 817 805 795 796 796 798 799 801 802 798 798 798 798 800 800 799 798 798
836 834 832 830 828 826 824 823 821 820 819 818 817 815 814 813 812 812 811 810 810 810 809 809 809 809 808 802 796 796 795 795 795 795 794 793 793 793 793 794 795 794 794 794 793 793 795 797 800 801 800 799 799 803 805 803 800 803 810 814 811 809 807 801 799 800 804 808 803 807 815 805 796 796 796 799 801 802 802 799 797 797 798 798 799 799 798 797
834 832 830 828 826 824 823 821 820 818 817 816 815 813 812 811 810 809 809 808 808 808 808 808 807 808 807 800 795 794 794 793 793 793 792 792 792 792 792 793 793 793 793 792 792 793 793 795 798 798 799 800 800 803 808 807 804 803 805 810 809 806 806 804 801 798 798 805 807 807 809 805 800 797 797 799 800 803 803 800 798 797 797 798 798 798 798 798
832 830 828 826 824 823 821 820 818 817 816 814 813 811 810 809 807 807 807 807 807 807 808 807 807 808 804 796 793 793 792 792 792 791 790 790 790 790 791 791 791 791 790 790 791 791 792 794 797 798 799 800 798 800 807 810 807 804 803 804 804 802 802 804 806 801 797 802 807 807 806 803 800 799 799 799 800 803 804 800 799 797 796 797 797 798 798 798
831 829 826 824 822 820 819 818 817 815 814 813 811 809 807 806 805 805 806 806 806 807 807 807 808 807 799 793 794 793 792 792 790 789 789 788 788 789 790 790 790 790 789 789 789 789 790 792 795 798 799 799 799 799 803 804 802 800 802 802 800 799 800 800 802 802 799 801 804 807 808 802 798 797 797 799 799 802 803 800 798 798 797 797 797 799 798 799
829 826 823 821 820 818 817 816 815 814 813 811 810 808 806 805 804 805 805 805 805 804 804 804 805 802 796 794 794 793 793 792 789 788 787 787 787 787 788 789 789 789 790 787 785 785 786 790 795 797 797 797 797 794 794 795 794 793 794 794 796 800 800 796 796 798 798 802 803 803 805 801 798 797 795 796 797 799 800 799 798 797 797 797 797 799 799 801
827 824 822 820 818 816 815 814 814 814 812 811 810 807 806 806 804 804 804 805 803 802 802 802 802 798 795 794 794 793 792 790 788 786 786 787 787 787 788 788 788 790 790 786 783 782 783 789 793 790 787 788 790 790 790 791 792 792 792 791 792 797 798 794 797 798 795 802 804 799 800 800 799 799 796 795 797 799 798 798 798 796 796 798 798 799 800 800
826 823 820 818 816 815 814 813 813 813 812 811 810 808 808 810 808 807 807 803 801 801 802 801 802 800 796 795 794 795 794 790 787 786 786 786 787 789 787 787 792 790 785 781 781 781 784 788 786 781 779 780 785 789 790 790 793 798 802 800 794 795 798 797 799 800 797 802 803 798 801 800 798 799 797 796 799 799 797 797 797 796 797 798 799 799 800 801
825 822 819 816 815 814 813 813 813 813 813 812 811 810 811 812 811 811 810 806 801 801 801 801 802 800 797 795 795 795 796 793 788 785 786 786 787 789 787 788 794 790 783 782 783 785 789 786 779 777 778 779 784 788 791 792 794 801 808 808 802 799 802 803 803 803 802 805 805 804 806 802 799 801 799 798 799 797 796 797 798 798 798 798 800 802 803 804
824 821 818 816 815 814 813 813 813 813 812 812 812 812 812 812 810 810 810 808 803 800 801 801 800 799 796 795 794 795 795 794 790 786 785 786 786 788 786 788 793 790 786 783 781 783 787 780 773 776 778 780 786 789 791 793 794 798 805 811 811 807 807 808 809 809 807 809 809 807 808 804 800 802 800 798 798 797 798 799 799 799 800 801 805 807 807 809
824 821 819 817 815 814 814 813 814 813 812 812 812 812 812 810 809 809 809 808 804 800 800 800 799 797 796 795 795 795 794 792 791 787 786 786 786 787 787 787 790 790 787 782 778 779 781 776 772 777 780 781 787 790 792 794 795 797 802 809 812 811 811 810 812 812 811 813 812 810 810 807 802 802 801 798 798 798 797 798 798 800 804 806 809 811 812 812
824 822 819 817 816 815 814 814 814 813 812 812 811 811 811 809 808 808 808 808 805 800 798 799 799 797 796 795 795 794 793 791 791 788 787 787 786 788 788 786 787 790 788 783 779 780 784 781 776 778 781 782 786 790 790 792 796 800 801 803 806 809 810 811 813 815 817 819 817 816 818 814 807 805 804 801 801 798 796 799 803 806 809 811 814 815 815 815
825 822 820 818 817 815 815 815 814 813 812 811 811 810 809 809 808 808 809 808 803 800 800 799 798 797 796 795 794 794 792 791 790 789 788 787 786 787 788 786 788 791 790 784 781 784 789 786 778 777 781 784 786 790 789 789 797 802 799 797 800 804 808 811 814 818 823 826 823 821 821 819 812 806 803 804 804 800 800 808 813 815 816 816 818 818 817 818
824 823 821 819 818 817 816 815 814 813 812 811 811 809 809 808 807 808 808 805 804 807 805 800 798 797 797 795 794 793 792 791 789 788 788 786 786 786 785 786 787 790 793 788 783 790 793 788 783 779 781 785 785 789 791 789 792 798 797 796 797 800 805 810 815 822 829 829 828 825 821 823 820 807 803 805 804 804 813 820 822 821 821 821 821 821 821 822
824 823 821 819 818 817 816 815 814 813 812 811 809 809 808 807 807 808 805 803 808 811 809 803 799 798 796 794 794 794 796 796 790 788 788 787 787 786 781 783 787 790 794 786 782 792 795 789 785 780 780 785 786 788 790 787 791 800 802 799 798 799 802 807 814 823 830 828 829 831 824 824 820 807 805 806 805 815 827 828 827 826 824 825 826 826 826 827
824 822 821 820 818 817 816 815 813 813 812 810 809 809 807 806 808 806 802 805 810 811 810 805 799 798 797 794 794 795 798 798 794 791 789 787 788 786 781 784 788 790 791 784 782 795 797 793 791 784 782 788 792 795 792 788 791 800 804 800 800 803 802 807 812 819 828 826 824 828 824 821 816 805 805 809 814 827 834 831 829 828 827 828 829 830 830 830
823 822 821 819 818 817 816 814 813 812 810 809 809 807 806 808 807 801 802 810 812 809 808 805 801 801 799 795 794 796 797 798 797 795 790 787 787 786 784 787 788 786 785 783 788 798 796 795 797 793 792 794 796 800 797 793 794 798 800 800 805 809 808 812 813 815 822 820 816 820 819 818 816 808 808 817 823 828 831 832 832 831 831 832 833 834 835 835
823 821 820 819 818 817 815 814 812 810 809 808 807 806 807 805 802 803 808 812 811 808 807 806 804 802 800 798 797 798 798 798 797 794 790 788 788 786 782 782 783 779 781 786 791 796 795 794 798 799 799 796 793 797 800 799 799 799 798 799 807 814 814 816 819 818 818 816 816 818 815 815 817 816 820 828 828 825 827 832 834 834 836 837 838 840 840 841
821 821 820 818 818 816 815 813 811 809 808 806 805 806 804 799 803 815 817 811 811 814 812 810 808 805 803 801 801 801 798 797 795 792 792 792 791 792 788 788 789 781 784 794 791 792 796 799 802 802 800 796 792 796 802 803 802 802 798 796 806 817 818 819 822 821 815 816 822 820 816 816 821 830 835 833 830 829 832 834 836 838 839 841 844 845 846 846
821 820 819 818 817 816 814 812 810 808 806 804 806 805 799 801 815 825 821 816 818 819 816 815 812 808 804 801 802 804 799 798 798 794 795 792 789 793 793 797 799 786 787 798 793 789 793 796 801 801 799 799 796 795 802 804 803 804 800 794 801 813 821 824 825 823 818 819 823 822 818 815 823 840 842 836 836 837 838 840 840 842 843 846 849 849 851 851
820 819 818 818 817 815 813 811 808 807 805 804 803 799 801 814 827 826 823 824 823 818 816 818 814 807 804 804 806 807 801 799 799 794 794 792 792 799 799 799 801 794 789 794 796 796 792 794 803 807 805 803 801 801 802 801 802 809 806 798 799 805 811 816 818 819 820 822 823 824 822 818 827 847 846 839 842 841 842 845 844 847 849 850 853 853 854 855
819 819 818 817 816 815 812 809 807 806 805 803 800 802 815 829 833 829 829 830 825 821 820 819 814 807 804 806 807 807 803 801 799 795 798 802 807 813 812 808 808 804 794 790 801 806 799 802 811 813 812 809 806 808 807 802 804 813 812 804 802 802 803 811 819 819 818 821 823 823 828 829 835 847 846 842 846 845 847 849 848 852 855 855 857 857 858 859
819 818 817 817 816 814 811 809 807 806 806 802 802 818 833 836 836 835 833 831 828 829 825 816 813 810 807 807 807 805 803 801 801 799 804 810 814 819 819 815 813 813 804 797 804 807 801 809 817 812 811 813 812 812 811 808 806 808 809 807 808 808 806 811 822 825 818 818 818 818 833 844 842 845 846 845 849 850 851 853 854 857 859 859 860 861 863 864
818 817 817 817 815 813 811 809 808 807 806 801 808 832 845 838 836 837 834 832 831 832 825 815 816 817 814 813 816 813 805 802 803 805 810 814 818 825 825 820 815 816 816 810 807 808 804 810 819 816 812 816 818 814 811 813 809 806 808 809 811 814 810 807 817 826 823 820 816 815 829 840 836 839 847 847 850 854 856 858 860 861 861 862 864 866 867 867
818 817 816 817 815 813 811 808 809 808 806 809 821 839 847 840 836 837 835 834 833 829 821 817 819 820 817 817 823 822 813 809 812 813 815 819 824 830 831 827 818 815 820 814 807 812 810 808 818 822 817 817 817 812 810 813 814 810 810 810 811 812 809 807 815 825 825 823 822 820 823 828 827 833 845 852 855 857 859 862 863 865 865 866 868 869 869 869
818 816 817 818 815 813 812 810 811 808 809 823 833 839 847 846 838 836 836 834 833 827 821 822 822 820 822 824 825 825 821 820 821 818 820 826 830 832 835 835 825 817 819 814 811 818 812 807 817 821 820 819 816 812 811 812 815 814 813 815 816 812 810 810 812 816 816 819 827 825 820 831 842 846 853 860 861 861 863 866 867 869 869 869 871 871 871 871
818 817 818 818 814 814 814 810 812 814 821 838 843 843 850 848 837 834 834 833 831 826 825 827 824 823 828 827 824 826 828 829 829 826 831 836 835 833 836 839 835 826 820 815 818 822 812 807 817 821 820 820 819 822 823 819 818 816 813 817 819 816 817 816 816 820 818 817 826 825 822 841 859 861 863 866 868 867 868 870 872 872 872 872 873 873 873 873
818 818 819 817 814 814 812 813 826 835 840 847 850 850 851 844 838 835 833 832 830 828 829 830 829 831 831 826 824 828 830 834 834 833 838 842 839 836 837 842 843 836 824 815 819 825 816 808 816 824 825 824 828 837 840 837 831 823 817 818 818 817 817 816 819 830 829 823 824 821 827 855 870 868 870 872 873 873 872 873 875 874 874 874 874 874 874 874
819 822 822 818 815 813 812 824 843 848 845 847 852 854 850 844 842 839 834 834 832 829 830 832 834 837 835 831 831 830 832 837 838 836 841 846 846 844 843 843 844 841 831 823 825 831 826 816 819 832 836 834 838 844 847 847 841 829 823 825 825 820 816 815 816 825 830 830 828 819 828 861 876 873 876 878 877 878 877 875 875 874 874 874 874 875 874 874
825 826 823 819 817 814 815 829 844 848 849 853 855 855 851 848 846 842 838 837 836 833 832 835 837 837 839 842 838 835 837 840 842 841 842 845 846 847 848 844 840 840 833 827 829 831 829 827 829 837 840 837 838 842 844 844 839 832 831 834 833 827 823 823 819 820 823 825 826 821 828 859 878 877 879 880 879 880 878 878 877 874 875 874 874 875 873 873
831 830 826 821 816 812 819 833 841 847 853 855 853 853 852 850 848 846 844 842 843 841 838 840 842 840 843 847 845 843 843 841 844 846 844 844 846 847 849 845 839 837 834 833 835 828 828 835 832 831 838 841 837 835 834 835 837 839 841 842 840 835 834 831 825 826 824 820 823 819 820 850 877 879 880 881 880 880 879 878 878 876 876 876 874 874 873 873
831 830 829 827 820 819 830 841 843 848 856 856 856 858 856 852 850 851 850 848 849 848 845 846 847 847 847 848 849 851 846 840 844 851 850 849 848 848 849 848 843 841 839 841 841 834 836 846 838 825 828 834 835 837 838 838 840 844 847 846 843 841 839 833 829 831 829 825 826 818 823 858 882 880 880 883 881 880 880 877 877 876 876 877 876 875 874 873
829 829 833 833 830 832 842 849 847 850 856 854 855 861 861 856 852 851 851 850 850 852 852 852 852 850 848 848 851 853 852 848 848 856 860 856 852 853 853 850 846 844 842 841 842 840 844 856 857 842 833 834 841 849 853 848 844 846 848 847 846 843 839 835 831 829 829 831 830 826 837 868 883 878 880 884 881 881 880 877 876 876 876 877 877 877 876 874
832 839 845 841 838 841 845 849 851 851 851 851 856 862 863 860 856 851 850 852 853 854 855 856 857 856 855 855 853 855 860 858 855 861 865 861 859 857 854 852 849 846 844 841 841 840 841 855 868 864 856 856 857 858 858 853 848 848 848 846 847 847 842 839 834 830 832 832 832 836 845 858 873 881 883 883 883 883 880 878 877 876 877 878 878 878 878 876
837 847 854 848 847 851 852 853 856 855 853 854 861 866 864 862 862 859 856 855 854 854 854 856 861 865 866 862 855 858 863 860 859 865 866 863 863 857 851 852 852 849 847 844 843 843 845 859 873 871 866 865 863 860 858 855 854 854 851 848 849 849 847 844 839 838 839 833 832 844 850 855 872 884 883 882 884 883 880 879 878 877 878 879 879 879 879 878
842 848 853 852 854 861 863 861 859 857 856 857 862 868 867 864 864 866 865 859 856 856 856 859 866 869 869 863 857 861 864 858 858 867 869 867 864 859 855 855 854 853 851 848 850 850 851 862 873 871 867 867 867 865 862 860 860 859 854 853 853 852 851 850 846 847 849 842 841 849 855 866 881 884 881 883 883 882 881 879 877 878 879 879 880 879 879 879
844 847 850 851 856 863 865 866 861 856 856 859 861 867 871 868 865 866 867 862 860 861 860 862 868 872 870 864 859 863 867 863 863 868 871 868 865 864 866 865 863 859 855 855 857 852 850 862 873 870 863 866 870 867 864 862 863 862 857 855 857 857 856 856 854 854 852 849 851 854 855 868 884 885 882 884 883 883 883 879 878 879 879 880 880 880 880 879
847 849 848 848 856 863 863 867 866 858 858 862 863 866 870 870 869 869 868 867 866 865 865 866 870 873 872 868 865 867 870 869 869 871 872 871 870 870 871 872 871 866 862 863 861 858 856 864 873 865 854 861 872 869 865 866 863 861 859 858 860 861 858 857 858 858 856 853 857 857 854 864 881 885 883 883 883 884 882 879 879 880 880 881 881 880 879 878
848 850 849 846 855 865 866 866 864 858 860 868 870 871 871 871 873 872 868 868 870 870 870 871 873 871 868 867 869 871 871 872 873 874 875 874 874 874 873 873 873 870 869 866 865 872 872 865 866 861 849 858 872 870 870 869 853 845 851 856 858 859 857 858 862 866 867 862 858 856 860 871 882 883 882 883 884 884 882 880 880 880 881 881 881 880 879 877
Wind_Speed
16 15 16 17 17 17 18 18 18 17 17 17 18 18 19 19 18 16 16 16 16 15 15 15 15 15 15 15 16 16 15 15 16 16 19 20 21 24 24 20 16 14 12 12 12 11 9 8 6 4 5 5 4 4 6 4 3 3 3 6 7 8 8 7 8 5 2 3 6 3 0 2 1 2 3 2 3 3 1 2 3 2 2 1 3 4 1 8
16 16 17 17 17 18 18 17 17 17 17 17 17 17 18 19 19 17 17 16 16 15 15 15 15 15 14 14 16 16 15 15 16 20 25 26 27 28 26 24 24 21 17 14 12 9 7 5 5 4 4 6 5 5 7 6 5 6 4 6 8 8 6 6 8 7 3 4 5 4 2 2 2 2 4 2 2 5 2 5 4 3 2 2 4 4 5 9
16 16 17 17 17 17 17 16 17 17 18 18 17 17 17 18 19 18 18 16 16 16 15 15 14 14 14 14 14 14 14 14 15 19 20 21 25 28 27 25 25 23 17 14 12 10 8 7 6 5 5 7 6 7 9 7 7 8 6 7 10 9 6 5 8 10 6 4 4 3 3 1 1 1 3 3 4 3 2 5 3 5 6 5 4 4 5 7
16 16 17 17 17 17 16 16 16 17 18 18 18 17 18 18 18 19 19 18 17 16 15 14 14 13 13 13 13 11 11 12 12 9 4 7 10 14 22 24 24 22 18 16 14 11 10 10 8 6 6 8 8 8 10 10 7 7 9 10 9 8 7 6 7 9 8 6 5 3 2 3 2 1 2 3 4 2 3 3 4 7 9 9 5 3 5 7
17 17 17 17 17 17 17 16 16 17 18 18 18 18 19 19 18 18 19 19 18 17 16 14 14 13 13 12 10 8 7 8 3 9 8 11 15 10 8 17 21 22 19 17 15 13 12 11 8 6 6 9 9 8 12 13 7 6 12 14 8 8 7 6 5 5 6 5 6 5 4 2 2 2 2 3 6 1 3 3 5 7 8 9 7 0 5 7
18 18 18 18 17 17 17 16 16 17 18 18 18 18 19 19 20 19 18 18 18 17 16 15 13 12 12 10 8 5 6 6 3 10 7 10 16 18 10 5 13 19 19 17 15 12 10 11 8 5 5 8 13 12 13 13 9 7 11 13 8 9 7 4 4 3 4 5 7 6 3 1 1 4 2 3 8 2 3 4 4 5 7 7 5 2 5 7
19 19 19 18 18 17 17 16 17 17 17 18 18 18 18 19 20 20 19 17 17 17 17 15 13 11 10 7 6 5 7 11 6 5 8 15 20 21 15 10 8 12 17 19 17 12 9 10 10 6 5 8 14 15 14 12 11 9 9 11 9 9 8 4 5 4 5 7 6 3 2 4 7 6 1 4 8 5 4 3 2 4 5 4 2 2 4 6
20 21 20 20 19 18 17 17 17 18 17 18 19 19 18 19 19 20 19 17 17 16 16 15 12 10 8 4 5 6 10 15 13 13 17 20 20 20 16 12 8 6 16 21 18 14 10 11 12 6 6 7 11 14 14 13 12 12 11 9 8 7 7 4 5 6 7 6 4 4 5 7 6 4 3 9 9 4 4 3 2 3 2 1 2 2 3 4
21 21 22 22 20 19 18 18 18 18 18 19 20 20 19 19 19 19 19 18 18 16 16 15 12 10 7 4 4 8 9 9 11 12 11 10 11 13 13 9 8 5 12 20 19 17 11 10 13 9 7 6 6 12 12 12 10 12 12 7 6 7 7 6 5 7 9 6 4 7 8 6 4 2 6 14 12 1 2 4 2 3 2 1 2 2 2 4
21 22 23 23 22 21 20 19 19 19 19 19 20 20 19 19 19 19 18 19 19 17 16 15 12 9 7 6 7 9 5 4 6 5 5 4 5 8 9 8 8 7 8 16 19 20 15 12 11 8 6 6 4 9 10 8 5 8 11 6 6 7 6 7 7 7 8 6 7 10 10 6 5 4 8 9 6 1 3 4 1 3 2 2 2 1 1 3
23 24 23 23 22 21 20 20 20 19 19 19 19 18 19 19 19 19 18 18 19 18 16 15 12 9 9 8 9 9 1 3 6 6 9 12 13 14 11 9 9 8 7 12 18 22 19 15 9 4 4 4 5 8 9 6 2 6 11 8 7 7 4 6 8 8 7 6 8 9 9 6 5 7 9 6 3 2 3 3 1 3 2 3 2 2 1 2
23 24 23 21 20 20 19 20 20 19 18 18 18 18 19 19 18 18 18 18 18 17 17 16 11 9 9 9 11 12 8 10 15 16 18 17 16 16 14 13 11 9 8 10 16 19 20 15 11 7 4 2 2 4 6 4 5 4 8 8 8 6 5 9 9 9 9 6 7 6 7 9 8 10 9 6 4 4 6 6 2 1 1 1 2 2 2 3
23 23 23 20 18 19 19 19 19 18 16 16 17 18 19 19 18 17 18 18 16 15 16 14 9 9 9 7 9 13 12 15 18 19 19 17 15 14 13 14 12 11 11 12 14 16 18 16 12 9 4 3 2 1 2 2 5 3 4 5 7 6 8 12 9 8 10 6 9 7 6 10 11 10 7 7 7 6 8 9 6 3 1 1 2 1 2 3
23 23 22 20 19 19 19 19 18 16 16 16 17 18 19 19 18 17 17 17 15 14 14 11 8 8 7 7 9 12 13 14 16 16 15 13 13 12 12 14 12 11 11 12 13 13 17 17 13 8 3 5 3 1 1 2 4 5 4 2 5 7 7 12 11 11 11 5 8 9 8 8 6 4 5 6 5 6 8 10 8 5 3 1 2 2 2 3
23 23 21 21 21 20 19 18 17 16 16 16 17 18 19 19 18 17 17 15 14 12 10 6 6 6 5 7 10 13 13 12 12 10 9 8 9 10 11 12 10 10 10 9 11 13 18 18 13 7 2 4 4 1 1 2 4 6 6 3 5 8 6 9 12 13 13 5 7 10 6 7 6 3 2 5 5 6 8 9 7 6 4 2 2 2 4 3
23 23 22 21 21 20 19 17 16 16 16 15 16 18 18 18 17 16 15 13 12 9 5 4 5 6 5 5 5 7 8 8 8 7 7 7 7 10 10 9 8 9 9 8 11 13 18 16 9 6 3 3 6 4 0 1 3 5 7 6 7 10 7 7 8 13 14 8 9 12 7 4 2 1 2 6 7 6 7 8 8 8 5 3 3 2 4 4
23 23 22 21 20 19 18 16 16 15 15 15 16 18 18 18 15 13 11 9 7 4 4 3 2 5 5 4 6 6 4 5 8 8 11 11 8 10 9 7 6 7 6 8 11 11 15 13 7 6 4 3 6 6 4 3 3 4 6 7 8 11 10 7 6 9 13 11 10 12 10 7 4 3 3 5 6 5 6 7 6 7 5 4 3 2 4 4
23 24 24 23 21 20 17 15 15 15 14 15 16 17 17 14 8 4 4 3 1 1 3 2 1 3 4 3 5 5 4 9 14 14 13 11 7 9 9 5 2 4 6 6 7 10 12 10 7 7 6 6 6 8 8 5 3 6 9 8 9 10 12 10 7 8 13 13 12 12 12 12 10 6 3 4 5 4 4 5 4 5 5 4 2 2 3 3
25 26 25 24 21 19 16 13 13 14 15 15 15 13 9 5 1 3 2 1 2 2 1 2 4 3 2 3 4 6 10 14 15 11 6 3 3 8 8 4 1 4 6 4 6 10 10 8 8 8 9 10 9 11 11 5 2 8 12 11 10 8 10 11 6 8 14 12 11 13 12 12 12 9 8 5 3 3 5 4 5 5 4 4 3 3 3 2
25 25 25 22 19 16 13 12 11 11 13 14 14 10 3 2 1 2 1 2 4 3 2 2 6 7 7 4 4 9 14 11 7 5 1 1 2 5 6 3 1 3 5 6 7 10 10 9 9 11 13 15 15 13 10 5 5 3 8 10 11 9 9 10 5 7 11 9 10 13 12 11 10 9 11 8 1 3 6 5 5 6 4 3 3 4 3 2
25 25 24 20 16 14 11 9 6 6 10 12 12 7 2 4 3 2 4 3 4 4 5 4 4 9 9 8 9 10 9 5 4 3 2 2 2 4 5 3 1 4 6 7 6 8 9 9 11 15 14 15 16 12 8 8 8 6 2 4 9 9 6 6 5 5 7 6 7 9 11 12 9 7 9 7 3 5 7 5 6 5 4 3 3 4 4 4
25 24 22 17 13 11 9 6 3 3 7 8 9 6 3 7 7 6 4 4 4 2 4 4 3 6 9 10 10 6 3 4 5 3 1 2 2 3 5 5 3 4 4 5 5 7 8 9 13 14 11 13 15 14 10 8 8 7 3 1 5 5 3 5 4 3 3 3 3 4 7 9 6 5 7 7 7 7 4 4 4 4 5 4 3 5 6 7
24 22 20 15 11 9 5 3 3 4 6 7 8 7 7 13 9 5 4 4 5 0 1 3 3 5 6 5 3 3 5 4 4 2 3 1 3 2 3 6 4 4 2 5 7 8 8 10 14 13 11 14 15 15 13 7 5 4 2 2 1 1 3 3 2 4 4 1 0 2 4 6 4 5 7 7 7 6 3 3 4 4 5 4 7 7 8 8
23 21 18 15 13 8 5 4 5 7 7 4 4 8 13 15 8 4 4 3 3 1 0 2 3 3 3 3 1 3 4 2 3 3 5 2 3 0 2 5 5 3 3 4 7 8 5 5 12 14 13 15 14 14 13 8 6 6 4 3 2 3 3 3 3 3 3 3 3 0 3 4 4 5 6 4 3 4 4 4 4 0 4 7 10 10 10 11
21 20 16 15 11 5 5 4 5 8 6 1 2 11 16 15 6 3 3 2 2 1 0 1 2 2 2 4 1 3 4 2 3 3 4 3 1 1 2 1 2 3 3 4 7 6 3 1 9 16 14 14 14 13 13 10 7 6 5 6 6 8 8 7 6 3 2 2 3 2 4 3 1 1 1 1 1 3 3 1 4 9 11 10 11 11 12 13
19 19 15 13 10 4 3 2 5 8 5 2 6 14 16 13 5 3 2 2 0 1 2 0 1 1 3 3 0 2 4 2 2 4 4 4 2 2 3 1 1 2 4 4 5 3 3 1 7 15 15 14 13 10 9 10 8 6 5 8 10 11 11 9 7 4 2 2 3 4 3 2 1 0 1 2 2 3 3 10 12 11 11 11 11 11 12 13
15 16 14 12 10 7 3 2 6 7 4 4 11 16 15 9 1 3 2 1 2 2 4 2 1 3 4 2 1 3 3 2 3 1 2 3 2 4 3 3 1 1 1 2 2 1 3 4 7 13 15 12 11 8 7 9 9 5 4 9 12 11 11 10 8 4 2 2 2 4 1 0 1 2 3 2 3 1 10 14 12 11 12 14 13 13 14 14
13 14 12 10 9 8 4 3 6 4 5 9 13 15 13 4 3 2 3 1 3 2 2 2 3 4 4 2 2 1 0 4 3 3 3 4 1 4 3 4 3 2 1 2 3 1 2 6 9 13 13 9 6 5 6 9 6 3 4 7 8 8 9 10 7 5 4 2 0 1 2 1 1 1 2 2 2 8 12 11 11 13 14 14 14 14 15 14
13 12 11 11 9 7 6 5 5 6 9 11 13 13 8 2 2 3 2 2 2 1 1 2 3 4 3 2 0 2 1 1 1 3 6 2 1 3 1 4 4 5 1 1 5 2 2 2 2 5 8 7 5 5 3 5 5 5 7 8 7 6 8 8 5 5 5 2 2 6 6 2 1 2 1 2 6 9 8 8 11 13 13 14 14 14 14 14
13 11 11 11 9 9 9 5 6 10 13 12 12 10 2 2 0 1 2 2 2 2 1 2 4 3 3 1 1 3 3 1 1 3 4 0 1 3 1 3 4 4 6 9 9 3 2 2 3 3 4 5 7 7 5 5 7 10 12 11 9 7 6 5 3 3 4 3 1 7 9 4 1 1 3 4 5 6 8 9 11 12 14 14 13 14 14 14
12 11 11 11 10 11 9 6 11 16 16 13 11 5 3 2 1 2 4 1 1 3 1 2 4 4 3 3 3 3 2 2 2 2 1 1 2 2 0 1 1 2 6 8 7 4 5 4 2 3 3 4 9 9 7 7 6 6 9 10 8 6 5 4 3 2 4 2 1 5 8 5 2 3 5 5 5 7 10 11 12 14 15 14 13 14 14 14
11 11 10 10 11 12 10 11 18 21 19 13 6 1 3 1 2 4 3 1 2 5 4 3 4 4 3 3 4 6 3 2 3 3 3 1 3 5 5 3 2 1 5 4 4 4 5 4 1 3 3 2 7 9 6 5 3 2 7 9 7 5 4 3 3 3 3 1 2 2 6 4 3 5 6 8 11 12 12 12 13 14 14 14 14 14 13 13
11 10 10 11 12 13 14 17 21 22 18 9 1 2 1 2 5 4 5 4 3 3 3 3 5 5 4 3 5 6 4 4 4 3 2 1 5 7 9 10 6 2 4 3 1 3 4 5 4 3 2 5 4 5 4 3 4 3 4 6 5 5 4 4 4 2 1 2 1 0 3 3 5 6 7 12 15 14 14 13 13 14 15 15 14 13 13 14
9 9 10 10 11 14 19 21 19 16 11 4 2 0 4 5 4 5 5 5 3 3 4 4 6 6 2 3 4 4 5 6 6 5 5 4 6 6 7 12 12 6 3 2 2 4 3 5 6 5 2 5 6 4 3 3 6 3 2 0 3 4 2 4 4 2 2 3 2 1 2 0 5 5 6 12 13 13 13 13 13 14 14 13 13 13 14 14
8 8 9 8 11 18 22 19 14 8 4 3 1 5 7 5 4 4 5 5 4 5 7 5 5 4 2 2 3 3 4 4 6 8 10 8 7 6 6 9 13 8 2 1 2 3 3 5 6 4 2 5 5 4 4 3 5 2 2 1 1 1 1 2 3 1 2 4 3 3 1 5 7 7 6 9 12 12 13 13 14 14 13 12 12 12 13 12
6 6 6 7 16 23 21 15 11 6 2 3 3 8 5 2 3 4 4 5 4 6 9 5 4 4 4 4 5 7 5 3 5 5 7 7 7 8 8 6 9 9 5 2 2 1 2 5 6 4 4 6 5 3 4 2 1 2 2 2 2 3 1 3 3 2 1 2 3 4 5 7 7 7 6 8 11 12 12 13 14 13 13 13 12 11 11 11
5 5 3 9 22 25 17 11 7 4 1 1 6 6 1 0 2 3 4 6 4 5 6 3 3 5 6 5 7 10 7 4 6 5 4 5 5 8 10 5 6 8 6 3 2 2 1 5 6 5 6 6 4 2 6 6 3 1 3 3 3 1 1 1 2 2 1 2 3 4 7 9 6 5 6 7 9 11 11 12 12 12 12 13 12 11 11 11
6 4 1 10 25 23 13 8 5 4 3 4 8 5 1 1 1 2 5 6 4 3 4 5 3 4 6 4 6 10 8 3 5 5 4 5 4 6 9 5 5 8 7 4 1 2 2 4 5 4 3 3 3 1 4 6 5 2 2 2 1 2 2 2 2 3 3 3 3 3 6 5 2 4 7 7 8 9 10 10 11 12 12 11 10 10 10 10
5 2 2 13 26 17 8 9 6 4 4 5 6 3 1 3 3 4 6 5 3 2 4 5 4 4 6 4 4 8 8 6 5 4 3 4 3 4 8 5 5 9 9 5 2 1 2 1 3 3 2 2 3 1 2 3 3 2 2 2 1 2 0 2 1 1 2 4 3 3 5 3 3 5 7 8 8 8 9 9 10 11 11 9 8 8 9 9
3 1 1 17 25 10 6 12 9 5 5 5 3 2 1 3 5 6 7 5 2 2 3 4 4 4 4 4 4 5 6 7 6 3 4 5 2 2 8 7 5 9 9 5 4 2 2 1 3 2 2 2 1 3 1 0 1 2 2 2 1 1 1 1 1 2 1 2 3 3 4 3 4 5 7 9 8 8 9 8 8 9 9 9 8 8 8 8
2 1 2 19 21 5 5 11 9 4 3 4 2 1 2 4 5 8 9 6 3 3 4 4 5 5 3 3 5 4 4 6 7 5 4 6 4 3 8 9 5 6 6 3 5 4 3 1 4 4 2 2 3 3 3 3 2 0 1 2 1 1 1 3 2 1 1 1 1 2 3 3 3 4 6 8 8 8 8 8 7 7 7 7 7 7 7 7
2 1 5 20 17 6 7 7 3 2 3 3 2 1 4 5 5 7 9 7 4 3 4 4 5 5 4 4 4 4 4 5 6 6 4 5 7 5 8 12 6 4 3 2 2 3 2 2 5 5 3 3 2 2 1 2 3 2 3 1 0 1 1 4 4 2 1 0 0 1 1 4 5 5 6 6 7 7 7 7 6 6 6 7 7 7 7 8
2 0 7 19 12 5 7 6 1 3 3 1 2 1 3 4 4 6 7 8 6 4 5 4 3 5 5 4 3 4 5 4 6 6 3 4 7 6 9 13 7 2 3 2 1 2 1 1 4 4 2 3 2 1 1 2 1 2 5 5 2 1 1 1 1 1 2 3 2 2 3 4 5 5 6 5 6 6 6 7 7 6 6 6 7 8 8 8
2 1 5 18 13 6 4 4 2 2 2 2 2 3 3 3 4 7 8 9 7 5 4 5 5 6 5 3 3 4 4 3 5 6 3 3 5 4 9 14 11 6 4 3 3 2 1 1 1 4 3 2 1 1 2 1 2 3 3 5 4 4 3 1 1 1 4 4 4 6 5 4 6 5 5 5 5 5 6 6 6 6 6 6 7 7 8 9
1 1 2 14 20 12 4 2 2 3 2 2 4 5 5 2 3 5 5 7 7 5 4 4 4 5 4 2 3 6 7 5 4 3 3 4 3 4 9 12 10 9 7 4 4 3 1 2 1 2 4 3 2 1 1 1 2 2 2 4 6 6 4 1 1 3 5 3 4 7 3 5 7 6 5 5 5 6 6 6 6 6 6 6 6 7 8 9
1 2 1 6 12 9 5 3 3 3 3 2 3 4 5 3 2 4 3 4 6 6 5 5 5 4 4 4 4 6 10 8 5 3 3 4 3 2 7 9 9 11 10 7 6 2 3 4 5 4 3 2 3 2 1 1 1 2 1 3 4 4 3 1 2 5 3 1 3 3 4 8 8 3 4 4 6 6 6 7 7 7 6 6 6 7 8 9
0 2 2 1 3 4 4 6 5 3 2 1 1 3 4 4 3 4 4 4 4 5 4 6 8 5 4 6 4 4 7 6 6 5 3 4 3 3 5 6 9 15 13 8 7 3 4 4 5 6 7 4 3 2 1 2 2 2 1 0 1 2 2 2 4 3 1 2 5 1 6 8 7 3 4 3 5 6 7 8 8 7 6 5 4 6 8 10
1 2 1 2 1 2 3 4 5 5 5 3 3 2 3 5 4 3 4 3 3 4 3 4 9 9 7 6 2 3 5 4 4 4 3 4 4 3 3 4 7 13 12 7 7 4 4 3 3 2 5 5 4 3 2 2 2 0 2 2 2 2 2 4 4 2 1 5 4 3 5 4 5 4 3 4 6 6 7 8 8 7 6 4 3 6 8 9
2 3 1 2 2 2 2 3 4 4 6 5 3 2 2 4 5 2 3 3 3 5 5 4 5 8 8 6 2 3 4 3 3 4 3 5 5 4 4 2 4 11 10 6 6 3 2 3 1 0 4 6 5 4 4 4 3 2 3 4 3 4 4 5 5 4 4 7 5 4 3 4 5 3 3 5 5 5 6 7 7 7 6 4 4 7 8 9
2 2 1 2 3 3 2 2 2 2 4 3 2 2 1 2 3 2 2 4 3 4 5 4 4 5 6 7 6 5 5 4 4 4 3 4 4 4 3 2 3 8 9 6 4 4 2 2 0 1 2 3 4 3 3 4 3 4 5 5 5 5 6 7 6 5 6 7 5 4 1 4 4 2 2 3 4 5 6 7 7 6 5 4 6 8 9 11
3 2 0 3 3 3 2 2 1 1 2 3 2 2 1 1 2 2 2 4 4 3 3 3 2 2 3 6 7 6 4 4 4 4 4 4 3 3 3 2 4 6 7 5 4 5 3 2 1 0 2 1 2 3 5 6 5 6 6 4 4 5 5 4 3 2 4 3 1 2 2 2 4 2 1 2 4 6 7 8 7 5 4 5 7 9 11 13
3 2 1 2 2 3 2 1 1 1 1 2 2 2 1 1 1 1 1 2 2 3 3 1 2 2 2 5 6 4 3 4 4 3 2 2 2 2 2 2 3 4 4 3 3 3 2 2 2 1 2 2 1 4 6 7 6 5 3 2 3 3 3 2 2 2 1 2 2 2 1 3 4 2 1 3 5 6 8 7 5 4 4 5 8 11 12 13
Wind_Direction
337 335 335 335 335 335 334 334 335 333 331 330 329 327 328 326 326 331 331 328 324 318 314 314 313 311 309 310 309 305 304 301 297 287 269 261 261 260 260 259 250 241 254 283 295 302 308 298 284 260 222 200 210 202 172 179 202 169 185 220 219 224 213 183 178 173 188 174 157 147 73 312 43 66 3 215 238 346 59 123 94 109 134 137 35 4 87 149
334 332 330 329 329 329 329 329 332 332 329 329 326 322 324 322 321 325 328 329 327 322 317 313 311 311 310 309 305 303 305 302 294 279 269 270 271 267 263 259 251 247 256 268 273 284 291 285 295 291 231 206 194 185 180 177 200 193 179 213 220 225 203 164 167 170 191 172 146 150 173 317 3 26 342 295 333 358 69 89 93 97 97 132 80 60 119 153
332 330 325 325 328 325 324 324 326 328 326 326 325 323 322 322 321 320 324 327 328 326 320 314 311 311 308 306 301 302 308 302 286 274 273 280 278 265 258 255 250 247 248 250 253 258 265 272 292 290 226 215 203 191 192 181 194 201 188 212 220 216 194 162 171 179 189 175 178 180 163 239 69 35 320 317 325 330 85 67 45 17 352 336 37 88 137 167
332 329 324 326 329 324 322 321 321 323 324 323 322 323 323 323 321 318 320 322 326 327 322 318 313 312 309 305 302 306 310 296 275 251 258 337 323 271 250 248 247 244 239 240 243 245 256 267 277 268 221 210 207 202 200 188 185 197 200 218 214 197 201 189 184 189 188 197 225 200 174 226 128 123 282 306 287 224 112 61 10 347 332 325 344 111 160 186
331 330 328 327 327 323 321 321 319 318 319 319 318 318 318 320 321 321 319 317 322 325 325 321 315 313 308 303 304 311 300 291 249 144 107 36 21 9 262 242 244 241 235 231 232 235 245 256 263 261 229 202 197 204 207 197 188 200 210 224 211 178 197 185 177 200 180 196 222 201 227 244 116 188 217 264 263 220 86 41 359 337 328 322 320 218 174 194
330 329 328 326 324 322 322 323 321 316 315 316 316 315 314 314 315 320 319 314 315 322 326 322 320 315 309 306 299 298 262 264 104 122 90 12 354 357 356 283 251 238 230 223 217 219 226 238 240 241 236 197 190 200 205 195 194 215 212 220 212 174 191 170 150 183 162 193 215 206 224 165 224 248 189 234 256 287 21 1 350 333 327 316 307 255 199 200
331 329 326 325 323 321 323 323 321 318 315 314 315 314 314 311 308 313 316 310 309 317 324 323 322 311 309 314 288 274 242 253 263 234 288 317 321 329 336 336 295 235 219 216 210 206 208 222 226 228 240 205 191 198 200 190 197 223 216 210 204 182 195 176 136 156 177 206 207 161 173 213 247 263 182 241 251 261 308 339 341 321 321 306 296 260 229 217
332 331 326 323 322 320 321 319 317 316 315 313 313 310 311 312 306 307 311 309 305 309 319 322 317 304 299 296 272 265 247 254 270 274 284 297 305 309 311 322 320 244 211 212 208 203 198 216 224 221 243 226 190 192 193 190 200 220 219 198 187 186 188 159 133 156 179 209 184 152 206 220 237 284 287 267 264 246 276 305 302 299 300 287 333 314 271 246
333 333 327 323 321 318 318 315 313 314 313 311 310 308 306 308 307 305 307 308 303 298 312 320 311 299 279 242 248 261 257 269 286 285 282 285 293 293 295 308 318 298 221 214 210 207 199 210 221 214 246 269 199 186 183 188 202 213 213 191 175 192 182 160 153 167 178 187 177 194 225 215 193 293 270 261 269 263 229 265 297 310 303 32 12 339 300 278
333 331 326 323 319 316 315 313 312 312 310 307 307 306 304 305 305 304 302 303 299 295 307 315 307 291 257 229 236 248 262 341 310 269 241 262 313 305 289 292 311 320 246 219 210 210 207 208 214 211 241 288 243 193 177 185 194 193 203 200 190 193 177 177 174 172 179 174 186 214 240 223 165 221 242 241 253 139 198 238 318 323 328 57 54 29 336 298
332 329 324 321 318 315 314 312 311 310 307 307 305 304 304 304 302 302 302 300 295 293 301 307 301 274 242 232 234 239 237 8 301 287 288 294 304 303 292 289 301 307 268 230 215 212 213 212 202 189 214 259 248 196 178 171 119 170 190 194 199 192 166 194 190 173 180 184 192 215 251 243 161 213 236 215 177 153 235 261 324 311 352 70 72 70 46 340
332 328 324 322 320 316 315 314 311 309 308 307 304 303 304 303 301 301 303 303 294 288 294 299 291 256 240 239 239 250 268 276 281 288 292 292 287 286 284 283 288 286 275 246 228 215 212 212 202 207 219 260 253 191 185 139 98 153 179 180 183 188 196 203 195 177 189 197 177 185 251 244 218 223 218 198 221 236 254 268 260 268 15 66 72 84 75 37
329 327 325 324 323 318 316 315 312 310 310 307 304 304 306 305 302 299 300 300 294 286 291 295 277 244 238 248 248 254 264 270 282 289 289 289 282 274 269 273 278 276 273 256 240 221 210 209 206 214 228 255 254 220 264 108 101 124 166 193 171 182 220 208 193 176 189 185 156 170 246 243 229 228 197 182 222 230 242 251 235 225 251 3 8 37 70 60
327 327 327 324 321 317 316 316 314 311 309 306 304 306 308 306 301 297 297 295 291 287 290 285 259 235 229 255 267 261 264 274 287 295 294 285 275 272 263 264 268 265 268 258 244 225 208 203 206 220 227 238 237 56 291 131 126 132 150 228 178 189 214 199 189 178 187 182 161 188 246 246 222 214 175 166 195 202 229 242 235 226 220 245 334 340 11 55
327 326 325 323 320 319 317 315 314 311 309 307 304 307 307 304 300 294 293 291 289 287 282 266 234 223 244 266 272 269 268 274 279 287 300 280 251 259 257 247 244 249 261 258 243 223 203 194 200 220 187 196 218 211 2 165 153 149 167 181 182 202 193 178 187 186 191 183 177 199 238 250 244 252 155 137 157 187 225 242 246 239 225 239 287 316 325 7
327 325 325 323 320 321 320 317 316 314 312 307 305 309 306 302 300 292 290 286 281 276 254 241 217 215 267 279 271 277 268 263 269 276 303 304 243 234 237 231 232 247 258 250 239 217 193 186 192 216 195 170 198 190 74 238 181 163 188 185 182 201 193 169 183 197 195 172 185 210 230 253 248 297 113 142 159 174 215 239 249 253 253 258 268 288 300 316
328 325 323 320 317 318 319 319 318 314 311 310 308 309 306 302 296 285 281 274 272 261 224 241 207 209 252 275 274 288 289 285 299 298 298 303 275 236 229 231 237 243 243 235 234 205 180 181 183 200 210 197 187 179 189 224 202 171 189 197 192 195 199 182 167 197 198 183 190 207 228 240 182 128 116 149 167 171 211 240 252 267 280 284 284 294 299 306
326 321 318 317 317 314 314 316 315 315 316 313 310 309 306 305 302 276 263 250 195 169 207 214 196 223 232 248 285 305 322 310 308 302 295 298 272 225 215 213 231 243 235 228 218 184 171 178 183 187 203 210 189 177 198 211 188 180 179 192 196 190 201 199 172 178 189 194 201 202 219 232 214 205 197 158 162 179 218 246 264 278 283 292 313 299 302 326
324 321 321 324 323 316 312 309 310 320 321 316 318 317 309 305 37 106 125 147 188 213 227 187 202 260 285 245 283 308 311 309 303 291 287 300 230 203 201 194 186 244 238 218 189 175 168 168 181 194 199 205 198 189 200 198 154 194 191 193 192 185 201 202 171 162 176 188 204 206 216 227 222 232 254 239 173 211 245 252 266 274 272 276 297 298 321 358
328 328 330 331 329 324 317 307 313 329 323 322 330 333 341 10 73 119 64 266 243 259 318 229 217 270 299 289 303 320 318 310 287 273 280 277 219 188 184 165 152 255 249 219 183 168 166 166 182 199 199 199 198 190 184 133 79 177 201 200 192 188 197 190 160 157 177 189 205 212 221 228 224 222 245 257 270 271 259 245 247 256 265 285 315 319 328 344
336 339 337 332 331 331 325 318 337 341 320 328 341 346 39 20 354 312 332 292 242 239 259 260 253 270 281 288 302 321 325 303 257 286 307 244 216 189 181 149 164 253 244 207 162 150 168 181 193 199 198 196 191 177 148 114 92 92 147 210 193 189 186 165 143 155 184 209 208 213 227 231 230 217 232 253 263 256 253 249 252 263 282 295 313 318 329 354
344 346 343 339 338 336 329 336 16 334 326 1 20 34 32 345 318 274 290 291 261 216 239 264 276 270 271 274 282 286 276 288 287 292 331 198 177 190 174 142 186 238 231 185 144 144 173 195 196 190 187 186 185 181 168 138 108 95 84 210 192 175 135 108 84 101 164 229 207 193 229 235 232 230 244 258 258 256 261 277 286 291 287 297 344 355 10 25
350 351 351 354 355 349 350 24 38 344 359 43 48 35 353 332 320 241 223 284 289 161 182 260 256 271 282 276 279 237 231 276 297 319 11 266 179 205 177 146 185 244 239 185 161 153 177 198 187 173 177 179 178 187 188 170 146 150 133 118 134 121 127 129 76 58 80 52 22 153 227 244 235 235 246 247 252 266 281 271 261 254 278 339 41 44 38 40
353 352 355 2 2 9 53 61 28 1 9 58 50 11 350 339 334 219 208 277 290 336 219 255 271 278 295 323 355 231 242 264 272 326 359 282 175 184 208 152 164 216 241 181 159 151 150 174 165 161 176 178 175 185 190 191 192 190 165 133 130 120 101 89 90 78 78 58 26 73 224 255 255 246 246 228 229 262 254 242 246 50 47 51 63 61 54 54
354 352 357 6 7 45 86 55 17 358 349 174 340 349 349 348 341 214 218 276 261 304 254 192 257 262 288 309 283 242 273 272 266 321 341 291 224 164 202 154 137 206 227 157 137 137 110 90 164 162 170 174 177 187 191 195 195 188 180 170 157 135 116 97 98 101 119 95 21 331 225 235 287 249 233 125 177 250 251 15 42 60 64 66 69 67 65 63
355 354 1 15 21 63 90 29 358 347 328 239 327 338 345 347 357 152 202 281 185 1 343 309 258 326 337 314 222 272 270 237 292 310 299 284 274 214 195 126 90 191 219 172 129 107 98 189 178 164 164 165 169 181 189 192 191 193 184 168 156 134 122 117 107 91 120 142 4 335 241 187 36 306 74 66 244 252 44 57 59 62 63 67 71 73 69 63
354 352 359 16 21 27 38 336 341 340 318 314 326 336 343 342 75 149 245 254 83 351 325 330 330 357 347 318 312 294 267 296 309 323 309 299 282 255 206 134 132 165 238 143 100 18 119 136 162 162 162 164 165 169 181 191 188 174 150 157 157 145 138 132 118 109 117 106 10 343 312 126 293 292 28 14 261 29 61 64 64 66 69 70 68 65 64 60
351 349 351 0 2 9 18 335 331 328 316 321 324 334 343 346 158 223 281 37 45 335 302 326 316 328 324 292 307 300 222 315 310 83 348 315 298 253 196 107 117 149 277 225 152 9 106 133 152 157 158 164 157 133 155 179 177 125 125 154 152 142 145 139 125 129 136 130 132 162 199 254 257 186 51 341 356 67 71 73 73 74 74 71 64 60 60 57
346 345 346 349 348 351 346 321 312 315 318 317 321 332 344 61 147 248 275 66 32 19 174 324 328 333 315 251 287 29 49 325 337 8 320 293 64 282 151 89 132 137 51 66 111 69 41 100 151 142 142 144 109 71 96 154 139 119 132 126 104 106 126 130 127 130 140 212 222 168 179 234 292 187 159 40 61 79 86 81 80 80 74 68 62 57 54 52
343 342 341 346 351 348 338 316 309 322 322 315 317 321 319 113 213 270 21 31 19 27 207 320 348 332 314 280 26 17 7 343 282 321 306 211 11 310 94 109 160 125 66 65 73 68 65 28 322 25 88 123 102 67 41 76 110 133 137 121 106 107 106 103 105 125 166 227 187 163 176 195 241 132 83 57 75 113 117 96 86 79 71 66 60 54 50 49
341 341 338 341 344 343 336 322 326 327 323 318 318 306 210 222 280 27 39 65 43 14 346 348 344 328 350 18 22 352 326 340 313 305 341 46 2 329 132 146 185 74 62 63 67 71 56 46 332 353 11 119 105 83 55 59 89 131 141 131 115 110 109 105 110 181 216 219 72 154 176 189 191 82 60 49 74 107 109 100 91 79 71 66 59 54 50 47
337 336 332 330 328 331 326 321 325 323 322 324 325 254 217 251 29 24 351 300 15 9 358 347 338 336 344 359 356 330 316 33 5 18 51 57 65 59 50 35 317 50 62 49 69 78 55 59 56 332 343 73 99 100 85 68 73 134 152 145 131 131 145 147 153 194 216 178 32 141 180 178 94 63 51 61 73 81 86 85 83 78 73 68 61 56 51 47
335 333 329 326 323 327 326 323 320 315 319 327 262 223 246 50 35 351 320 338 15 359 341 329 320 317 313 324 346 341 13 47 356 13 68 42 74 67 52 37 356 349 74 62 67 59 74 94 50 20 27 360 26 106 110 117 142 143 152 159 155 145 152 166 166 188 203 129 54 80 209 177 100 64 49 73 78 77 78 76 74 74 71 68 63 57 54 49
333 333 334 333 333 337 333 328 320 314 319 316 220 143 61 60 15 329 340 353 335 319 336 336 316 308 331 1 337 341 42 47 10 38 58 28 50 46 26 25 11 9 75 92 63 32 79 96 30 12 351 343 15 54 43 106 126 106 7 299 157 142 160 180 168 165 138 115 116 196 259 110 112 89 60 80 82 76 76 74 73 71 68 67 63 56 53 48
333 333 339 345 350 346 340 335 332 334 333 297 317 56 57 54 358 336 353 339 314 325 327 327 329 332 6 4 351 1 41 47 10 39 53 43 50 34 5 14 9 2 1 55 64 19 56 70 14 351 319 343 27 27 355 84 107 83 316 302 109 60 16 120 96 80 116 103 132 168 59 54 99 106 85 83 79 73 73 72 71 69 64 63 59 52 48 45
333 336 345 2 356 349 346 345 346 358 317 275 60 61 50 41 344 339 345 324 319 320 313 321 357 7 5 357 13 9 11 34 9 32 54 44 49 29 11 14 9 9 9 26 81 35 66 62 360 349 52 26 17 15 14 26 96 127 172 158 73 14 18 115 88 54 101 149 160 152 111 104 116 112 97 87 77 70 67 67 67 65 61 59 54 48 45 42
346 340 352 5 355 350 348 349 357 30 11 353 69 67 26 242 318 311 324 317 297 297 317 8 13 355 6 13 18 1 345 5 8 18 37 22 28 9 358 358 3 15 9 355 63 22 57 86 25 9 64 43 341 3 55 34 2 100 146 135 104 19 343 107 113 111 158 197 165 157 148 149 161 149 118 88 73 68 64 65 64 61 58 56 53 48 43 41
343 337 60 4 353 351 354 4 38 71 47 52 74 86 238 313 306 292 321 315 272 281 5 50 26 352 5 16 27 5 350 359 2 17 48 30 31 6 356 347 342 5 357 319 33 18 335 97 54 15 49 34 325 294 87 56 21 30 105 94 119 210 181 165 159 145 189 201 161 180 178 165 164 135 115 78 61 64 63 61 58 55 53 53 51 46 43 41
349 341 115 357 351 353 18 42 67 67 50 63 64 67 319 308 291 302 327 319 269 291 25 42 26 28 25 21 38 15 14 36 19 23 48 20 28 18 5 347 322 348 352 343 36 23 329 77 83 30 354 325 354 346 173 108 50 48 95 81 358 324 256 188 149 112 209 191 156 185 186 147 39 68 85 67 55 55 58 58 55 52 51 50 48 42 40 38
5 39 110 351 351 1 59 57 62 43 51 70 39 22 345 302 295 320 341 343 328 356 33 30 18 34 35 38 56 31 28 40 28 38 43 10 25 66 21 7 327 332 340 4 46 14 328 51 119 88 1 273 75 38 340 34 86 137 145 149 132 30 325 212 86 47 309 191 169 189 175 126 49 48 68 64 52 47 55 61 58 53 50 49 45 41 39 37
1 86 348 345 351 24 78 50 51 31 58 75 38 354 329 328 326 336 349 359 13 38 52 60 52 39 28 40 42 30 37 47 35 47 60 18 16 51 16 358 324 315 326 5 36 13 354 67 114 108 75 76 76 26 350 333 320 323 165 200 176 113 182 194 181 114 2 283 199 195 166 112 67 54 66 66 56 49 51 55 58 54 48 47 44 40 39 36
17 92 341 344 357 72 81 53 42 22 77 71 24 308 312 337 342 337 349 1 11 39 49 66 59 37 33 34 26 28 44 52 41 48 84 46 30 27 349 338 315 280 319 13 40 0 342 70 88 90 67 55 42 339 307 283 305 16 50 29 337 298 241 224 217 168 157 200 60 257 170 111 95 80 77 74 69 60 49 44 48 45 39 40 38 35 34 31
28 89 346 353 4 101 80 68 77 33 62 357 314 264 307 344 351 345 0 11 5 9 28 37 27 27 38 20 7 30 31 37 44 48 94 73 39 25 339 342 345 299 324 19 38 1 5 62 81 93 64 42 41 318 205 239 280 55 46 27 359 278 328 276 287 72 195 195 170 229 213 138 120 100 89 86 80 71 54 41 36 31 29 28 27 26 24 23
39 207 340 7 30 105 90 70 116 67 43 332 5 26 349 355 12 6 13 20 11 358 15 31 21 20 26 14 30 37 12 32 52 38 54 64 35 15 349 354 6 14 16 19 336 342 39 10 74 124 119 90 113 182 178 154 50 57 42 17 12 26 37 36 58 42 237 213 194 230 233 139 129 122 101 88 75 66 55 41 32 27 23 18 19 21 18 16
40 179 288 13 35 62 75 65 115 106 81 48 48 23 356 13 40 14 13 24 23 15 15 23 11 10 17 22 54 37 15 34 65 27 30 37 15 6 357 354 9 24 22 12 333 319 50 29 353 156 159 169 163 160 168 112 58 53 34 17 22 29 23 16 122 208 229 198 194 234 246 116 129 126 101 78 56 47 41 32 26 27 24 18 18 17 14 13
34 57 293 1 29 48 68 59 66 107 113 95 72 20 4 24 14 354 12 34 32 32 38 29 357 346 10 20 49 42 22 32 67 77 47 14 349 356 346 343 8 14 4 9 9 353 113 62 11 25 67 87 98 96 14 356 78 122 59 21 17 14 10 24 213 224 218 159 223 231 124 139 155 125 75 60 38 30 25 16 14 19 20 19 21 17 14 13
89 57 11 335 21 39 62 52 39 63 74 50 67 20 3 6 351 352 20 35 24 20 46 48 27 18 13 6 28 46 22 31 61 63 44 0 326 279 317 346 12 4 354 4 7 358 117 70 4 23 51 49 67 88 303 326 92 140 167 154 317 321 321 212 227 227 141 226 247 131 107 148 158 93 58 51 34 25 16 7 3 7 13 17 22 20 15 11
49 119 342 320 353 15 30 26 23 42 52 54 70 43 5 20 32 21 1 1 2 1 22 51 29 23 13 353 2 42 12 23 52 39 19 8 345 302 330 29 27 7 1 12 10 13 97 71 345 16 55 45 40 39 15 17 48 11 266 261 270 289 264 236 254 293 199 238 254 54 69 115 124 94 54 40 29 17 6 356 351 0 13 23 24 19 15 8
67 114 26 346 50 72 26 344 341 36 54 54 57 53 21 30 49 55 331 342 16 12 19 41 18 8 9 9 38 63 23 19 47 39 18 11 3 353 1 31 23 10 10 22 23 20 85 79 29 89 81 61 37 27 35 35 11 312 276 267 269 271 263 259 273 294 272 267 294 349 31 93 101 77 34 37 25 10 355 344 350 6 14 24 24 14 7 359
83 106 67 73 82 75 48 354 328 34 48 34 45 68 62 25 45 65 353 5 31 18 16 46 41 12 21 37 66 82 53 37 50 47 14 359 9 21 21 359 346 359 6 20 15 352 14 92 89 220 123 70 26 8 11 9 340 295 280 271 263 258 254 254 258 267 270 273 303 328 309 128 113 66 39 43 22 11 351 343 355 10 19 29 18 6 357 351
67 59 97 116 73 13 15 21 345 39 41 18 35 77 90 23 22 43 42 26 35 36 19 38 81 76 55 61 73 80 57 34 48 46 14 1 10 11 12 1 337 345 1 15 358 349 18 120 152 273 173 147 31 10 342 336 311 274 261 239 226 232 234 239 246 261 267 259 284 318 265 147 116 99 83 55 25 9 350 344 355 11 34 35 9 357 352 346
75 75 30 108 80 3 359 5 351 58 66 17 26 47 37 39 341 295 98 68 45 44 28 30 156 153 84 66 65 55 10 346 1 11 345 339 349 342 335 338 333 333 345 3 8 4 34 133 140 143 201 202 25 0 341 324 293 258 224 175 175 190 195 184 126 79 17 259 256 272 228 106 98 90 68 36 16 359 340 336 352 17 31 21 2 353 345 338